Home > Time Zones > World Clock > Weather > Cuba > Havana > Past weeks

Flag for Cuba Weather past 2 weeks in Havana, Cuba

Now
72 °F

Clear.


Feels Like: 67 °F
Forecast: 79 / 89 °F
Wind: 2 mph from South

Location: Aeropuerto Jose Marti - Rancho-Boyeros - Habana

Current Time: Sep 30, 2014 at 6:23:25 AM

Latest Report: Sep 30, 2014 at 5:55 AM


Visibility: 4 mi

Pressure: 29.89 "Hg

Humidity: 94%

Dew point: 70 °F

Location of HavanaLocation

Historic Weather in Havana — Graph

°F

Havana temperature yesterday

Maximum temperature yesterday: 91 °F (at 1:55 PM)
Minimum temperature yesterday: 73 °F (at 6:55 AM)
Average temperature yesterday: 81 °F

Past Weeks' High & Low Weather Summary

 TemperatureHumidityPressure
High91 °F (Sep 22, 2:55 PM)94% (Sep 15, 11:55 PM)30.12 "Hg (Sep 15, 11:55 PM)
Low68 °F (Sep 17, 5:55 AM)41% (Sep 28, 4:55 PM)29.83 "Hg (Sep 29, 4:55 PM)
Average79 °F76%29.97 "Hg
* Reported Sep 15 4:55 AM — Sep 30 4:55 AM, Havana, Weather by CustomWeather, © 2014

Note: Actual official high and low records may vary slightly from our data, if they occured in-between our weather recording intervals... More about our weather records

Advertising

Havana weather history for previous 24 hours

 ConditionsComfort  
Time TempWeatherWind HumidityBarometerVisibility
4:55 AM
Sep 30
72 °FLight fog.1 mph94%29.89 "Hg4 mi
3:55 AM72 °FMild.2 mph94%29.89 "Hg4 mi
2:55 AM72 °FPassing clouds.No wind94%29.89 "Hg4 mi
1:55 AM73 °FPassing clouds.1 mph89%29.89 "Hg4 mi
12:55 AM73 °FPassing clouds.1 mph94%29.92 "Hg4 mi
11:55 PM
Sep 29
73 °FPassing clouds.No wind89%29.92 "Hg6 mi
10:55 PM75 °FPassing clouds.No wind89%29.92 "Hg6 mi
9:55 PM75 °FPassing clouds.3 mph89%29.92 "Hg6 mi
8:55 PM75 °FPassing clouds.3 mph89%29.92 "Hg6 mi
7:55 PM75 °FSprinkles. Partly sunny.10 mph83%29.89 "Hg5 mi
6:55 PM82 °FScattered clouds.6 mph74%29.86 "Hg6 mi
5:55 PM86 °FScattered clouds.7 mph62%29.86 "Hg6 mi
4:55 PM88 °FScattered clouds.6 mph59%29.83 "Hg6 mi
3:55 PM91 °FScattered clouds.8 mph49%29.86 "Hg6 mi
2:55 PM91 °FScattered clouds.7 mph41%29.86 "Hg6 mi
1:55 PM91 °FScattered clouds.6 mph46%29.89 "Hg6 mi
12:55 PM90 °FPartly sunny.7 mph49%29.92 "Hg6 mi
11:55 AM88 °FScattered clouds.8 mph59%29.92 "Hg6 mi
10:55 AM86 °FPassing clouds.7 mph62%29.92 "Hg6 mi
9:55 AM84 °FPassing clouds.7 mph66%29.92 "Hg6 mi
8:55 AM81 °FPassing clouds.5 mph79%29.92 "Hg6 mi
7:55 AM73 °FPassing clouds.3 mph89%29.92 "Hg6 mi
6:55 AM73 °FPassing clouds.3 mph89%29.92 "Hg6 mi
Weather by CustomWeather, © 2014

See weather overviewHow to use our weather pages